Location: Roland
(31.1349°N, 85.4372°W)
Time: 03:19:00
(UTC+00:00)

Courier 1B - Pass Details

Date: 21 April 2021
Orbit: 962 x 1209 km, 28.3° (Epoch: 07 May)

Event Time Altitude Azimuth Distance (km) Brightness Sun altitude
Rises 19:50:26 0° 266° (W) 3,689 11.0 54.5°
Reaches altitude 10° 19:53:08 10° 264° (W) 2,719 10.6 54.0°
Maximum altitude 19:59:37 70° 182° (S) 1,017 8.8 52.7°
Drops below altitude 10° 20:06:02 10° 100° (E) 2,692 9.6 51.5°
Sets 20:08:42 0° 98° (E) 3,650 10.2 50.9°
